Terug naar catalogus

CZ-2D DEB

ActiefSSO
NORAD 38299·DEBRIS·🇨🇳 China

Gelanceerd Jun 15, 2010 vanaf Jiuquan Satellite Launch Center

Loading…

Volgende Passages (komende 24 uur)

TLE

VersSource: Space-Track

Epoch: Sep 14, 2026, 09:55 UTC

1 38299U 10027D   26257.41331671  .00057946  00000-0  12879-2 0  9999
2 38299  97.6323 128.1860 0042217  30.0247 330.3407 15.42519872864766

Volg CZ-2D DEB in realtime met AllMySat

Download on the App Store